#timestamp,LO_Frequency,Hit,StdDev 
1679796015.3,286046999.6,N
1679796035.1,286046999.9,N
1679796055.9,286047000.7,N
1679796075.7,286047001.0,N
1679796095.5,286046996.8,N
1679796115.4,286046996.9,N
1679796135.2,286046998.2,N
1679796155.0,286046999.9,N
1679796155.9,286046999.9,N
1679796175.8,286047004.4,N
1679796195.6,286047004.2,N
1679796215.5,286047005.4,N
1679796235.3,286047005.8,N
1679796255.1,286047005.7,N
1679796275.9,286047005.9,N
1679796295.7,286047003.5,N
1679796315.5,286047004.8,N
1679796335.4,286047006.9,N
1679796355.2,286047005.0,N
1679796375.0,286047005.1,N
1679796376.0,286047005.1,N
1679796395.8,286047005.4,N
1679796415.6,286047002.9,N
1679796435.5,286047006.0,N
1679796455.3,286047003.9,N
1679796475.1,286047002.8,N
1679796495.9,286047000.9,N
1679796515.7,286047000.0,N
1679796535.6,286047002.6,N
1679796555.4,286047004.2,N
1679796575.2,286047004.1,N
1679796595.1,286047005.3,N
1679796596.0,286047005.3,N
1679796615.8,286047005.1,N
1679796635.6,286047005.5,N
1679796655.5,286047004.1,N
1679796675.3,286047002.3,N
1679796695.2,286047003.7,N
1679796715.9,286047003.5,N
1679796735.7,286047003.5,N
1679796755.6,286047003.6,N
1679796775.4,286047004.8,Y
1679796795.2,286047004.1,P
1679796815.1,286047001.7,P
1679796816.0,286047001.7,N
1679796835.8,286047000.9,N
1679796855.7,286047000.1,N
1679796875.5,286047004.4,N
1679796895.3,286047002.5,N
1679796915.2,286047002.8,N
1679796935.0,286047000.6,N
1679796935.9,286047000.6,N
1679796955.7,286047002.4,N
1679796975.6,286047000.0,N
1679796995.4,286047001.2,N
1679797015.3,286046998.7,N
1679797035.1,286046998.8,N
1679797036.0,286046998.8,N
1679797055.8,286047000.7,N
1679797075.7,286046998.6,N
1679797095.5,286046999.3,N
1679797115.3,286047000.7,N
1679797135.2,286046998.2,N
1679797155.0,286046998.7,N
1679797155.9,286046998.7,N
1679797175.8,286047000.1,N
1679797195.6,286047000.1,N
1679797215.4,286047000.5,N
1679797235.3,286047000.4,N
1679797255.1,286047000.5,N
1679797275.8,286046998.1,N
1679797295.7,286046996.8,N
1679797315.5,286046996.8,N
1679797335.4,286046998.6,N
1679797355.2,286047000.3,N
1679797375.0,286047000.9,N
1679797375.9,286047000.9,N
1679797395.8,286047001.0,N
1679797415.6,286047002.1,N
1679797435.4,286047000.7,N
1679797455.3,286047004.0,N
1679797475.1,286047002.0,N
1679797495.9,286047000.1,N
1679797515.7,286046998.4,N
1679797535.5,286046998.2,N
1679797555.4,286047000.5,N
1679797575.2,286047000.2,N
1679797595.0,286047000.2,N
1679797595.9,286047000.2,N
1679797615.8,286047002.5,N
1679797635.6,286047004.2,N
1679797655.5,286047001.8,N
1679797675.3,286047002.6,N
1679797695.1,286047002.2,N
1679797715.9,286047001.6,N
1679797735.7,286047002.6,N
1679797755.5,286047000.2,N
1679797775.4,286047002.8,N
1679797795.2,286047001.2,N
1679797815.1,286047000.3,N
1679797816.0,286047000.3,N
1679797835.8,286047000.6,N
1679797855.6,286046998.2,N
1679797875.5,286047000.4,N
1679797895.3,286046998.1,N
1679797915.1,286047000.7,N
1679797935.9,286047000.7,N
1679797955.7,286046999.7,N
1679797975.6,286047001.5,N
1679797995.4,286046999.7,N
1679798015.2,286047002.0,N
1679798035.1,286047002.7,N
1679798036.0,286047002.7,N
1679798055.8,286047002.6,N
1679798075.7,286047002.5,N
1679798095.5,286047002.0,N
1679798115.3,286047002.3,N
1679798135.2,286046997.6,N
1679798155.9,286046996.5,N
1679798175.7,286046997.0,N
1679798195.6,286046997.3,N
1679798215.4,286046997.1,N
1679798235.2,286046998.9,N
1679798255.1,286047000.8,N
1679798256.0,286047000.8,N
1679798275.8,286047002.8,N
1679798295.7,286046999.8,N
1679798315.5,286046998.6,N
1679798335.3,286046998.3,N
1679798355.2,286047000.8,N
1679798375.0,286046998.1,N
1679798375.9,286046998.1,N
1679798395.8,286046998.8,N
1679798415.6,286046999.4,N
1679798435.4,286046996.8,N
1679798455.3,286046997.1,N
1679798475.1,286046996.9,N
1679798476.0,286046996.9,N
1679798495.8,286046999.5,N
1679798515.7,286047000.6,N
1679798535.5,286047001.1,N
1679798555.3,286046996.5,N
1679798575.2,286046999.2,N
1679798595.0,286046999.4,N
1679798595.9,286046999.4,N
1679798615.8,286046998.9,N
1679798635.6,286046999.5,N
1679798655.4,286046999.4,N
1679798675.3,286046999.6,N
1679798695.1,286047001.2,N
1679798715.8,286047000.2,N
1679798735.7,286047000.7,N
1679798755.5,286047001.2,N
1679798775.4,286047000.4,N
1679798795.2,286047001.9,N
1679798815.0,286047002.7,N
1679798815.9,286047002.7,N
1679798835.8,286047002.5,N
1679798855.6,286047001.4,N
1679798875.4,286047002.4,N
1679798895.3,286047000.5,N
1679798915.1,286047002.8,N
1679798935.9,286047000.5,N
1679798955.7,286047000.7,N
1679798975.5,286047000.7,N
1679798995.4,286046998.8,N
1679799015.2,286046998.8,N
1679799035.0,286047000.8,N
1679799035.9,286047000.8,N
1679799055.8,286047000.5,N
1679799075.6,286047000.0,N
1679799095.5,286046998.4,N
1679799115.3,286046998.8,N
1679799135.1,286046999.9,N
1679799155.9,286047000.3,N
1679799175.7,286047002.2,N
1679799195.5,286047000.2,N
1679799215.4,286047001.1,N
1679799235.2,286046999.3,N
1679799255.1,286047000.0,N
1679799256.0,286047000.0,N
1679799275.8,286046998.2,N
1679799295.7,286046997.0,N
1679799315.5,286046997.0,N
1679799335.3,286046998.5,N
1679799355.2,286047000.0,N
1679799375.0,286047000.9,N
1679799375.9,286047000.9,N
1679799395.8,286047000.5,N
1679799415.6,286047002.8,N
1679799435.4,286046999.2,N
1679799455.3,286046998.0,N
1679799475.1,286046995.1,Y
1679799495.9,286046997.8,P
1679799515.7,286046994.9,P
1679799535.5,286046997.8,N
1679799555.4,286046995.2,N
1679799575.2,286046995.6,N
1679799595.0,286046995.8,N
1679799595.9,286046995.8,N
